QFA499 YSSY-YMML

Flight info

Callsign QFA499
Flight time N/A
Altitude 38000
Route WOL H65 LEECE Q29 ML
Aircraft B738/M-SDE2E3FGHIRWXY/LB1

Departure

Time 2026-04-30 12:02
Airport Sydney Kingsford Smith International Airport (YSSY)

Arrival

Time N/A
Airport Melbourne Airport (YMML)
Time Latitude Longitude Altitude Speed Heading
2026-04-30 11:15 -33.93151 151.17802 29 ft 0 kts 191°
2026-04-30 11:45 -33.93141 151.17804 3 ft 4 kts 192°
2026-04-30 11:45 -33.93114 151.17812 29 ft 4 kts 197°
2026-04-30 11:45 -33.93089 151.17824 29 ft 4 kts 211°
2026-04-30 11:46 -33.93071 151.17843 29 ft 4 kts 258°
2026-04-30 11:46 -33.93070 151.17853 29 ft 1 kts 281°
2026-04-30 11:53 -33.93063 151.17802 29 ft 9 kts 280°
2026-04-30 11:53 -33.93044 151.17733 29 ft 8 kts 296°
2026-04-30 11:53 -33.93019 151.17669 29 ft 8 kts 290°
2026-04-30 11:54 -33.93007 151.17598 29 ft 10 kts 275°
2026-04-30 11:54 -33.93046 151.17537 29 ft 11 kts 192°
2026-04-30 11:54 -33.93131 151.17528 29 ft 13 kts 174°
2026-04-30 11:54 -33.93228 151.17554 29 ft 16 kts 167°
2026-04-30 11:55 -33.93368 151.17591 29 ft 22 kts 168°
2026-04-30 11:55 -33.93516 151.17592 26 ft 22 kts 164°
2026-04-30 11:55 -33.93658 151.17644 28 ft 21 kts 150°
2026-04-30 11:55 -33.93808 151.17703 19 ft 24 kts 168°
2026-04-30 11:56 -33.93936 151.17794 21 ft 20 kts 156°
2026-04-30 11:56 -33.94069 151.17821 23 ft 19 kts 169°
2026-04-30 11:56 -33.94197 151.17857 25 ft 19 kts 167°
2026-04-30 11:56 -33.94320 151.17888 24 ft 16 kts 168°
2026-04-30 11:57 -33.94423 151.17914 25 ft 15 kts 175°
2026-04-30 11:57 -33.94516 151.17885 22 ft 13 kts 182°
2026-04-30 11:57 -33.94609 151.17906 25 ft 17 kts 168°
2026-04-30 11:57 -33.94736 151.17940 21 ft 19 kts 167°
2026-04-30 11:58 -33.94863 151.17971 20 ft 18 kts 168°
2026-04-30 11:58 -33.94985 151.18004 23 ft 18 kts 168°
2026-04-30 11:58 -33.95079 151.18028 28 ft 0 kts 167°
2026-04-30 11:58 -33.95090 151.18031 28 ft 15 kts 167°
2026-04-30 11:59 -33.95200 151.18008 26 ft 26 kts 252°
2026-04-30 11:59 -33.95233 151.17815 22 ft 23 kts 257°
2026-04-30 11:59 -33.95265 151.17629 20 ft 22 kts 246°
2026-04-30 11:59 -33.95383 151.17590 19 ft 17 kts 169°
2026-04-30 12:00 -33.95494 151.17620 20 ft 16 kts 168°
2026-04-30 12:00 -33.95601 151.17648 21 ft 17 kts 167°
2026-04-30 12:00 -33.95739 151.17685 27 ft 25 kts 168°
2026-04-30 12:00 -33.95956 151.17738 22 ft 37 kts 168°
2026-04-30 12:01 -33.96203 151.17807 22 ft 32 kts 168°
2026-04-30 12:01 -33.96357 151.17845 23 ft 21 kts 170°
2026-04-30 12:01 -33.96433 151.17993 23 ft 25 kts 76°
2026-04-30 12:01 -33.96348 151.18047 24 ft 0 kts 352°
2026-04-30 12:02 -33.96189 151.18000 19 ft 60 kts 348°
2026-04-30 12:02 -33.95462 151.17810 21 ft 151 kts 346°
2026-04-30 12:02 -33.94279 151.17484 631 ft 185 kts 351°
2026-04-30 12:02 -33.92982 151.17104 1685 ft 205 kts 341°
2026-04-30 12:03 -33.91647 151.16230 2416 ft 227 kts 330°
2026-04-30 12:03 -33.89705 151.13287 3904 ft 268 kts 297°
2026-04-30 12:03 -33.88929 151.11296 4520 ft 246 kts 298°
2026-04-30 12:04 -33.88180 151.09554 4525 ft 224 kts 301°
2026-04-30 12:04 -33.87430 151.07995 4456 ft 207 kts 303°
2026-04-30 12:04 -33.86830 151.06485 4366 ft 196 kts 279°
2026-04-30 12:04 -33.87141 151.04987 4346 ft 184 kts 231°
2026-04-30 12:05 -33.88052 151.04002 4495 ft 171 kts 207°
2026-04-30 12:05 -33.89124 151.03475 4973 ft 163 kts 195°
2026-04-30 12:05 -33.90226 151.03068 5622 ft 174 kts 194°
2026-04-30 12:05 -33.91479 151.02621 5928 ft 206 kts 194°
2026-04-30 12:06 -33.92932 151.02103 6374 ft 220 kts 194°
2026-04-30 12:06 -33.94419 151.01569 6975 ft 226 kts 194°
2026-04-30 12:06 -33.95979 151.01008 7203 ft 249 kts 195°
2026-04-30 12:06 -33.97739 151.00375 7390 ft 271 kts 195°
2026-04-30 12:07 -33.99569 150.99712 7714 ft 283 kts 195°
2026-04-30 12:07 -34.01475 150.99020 8186 ft 289 kts 195°
2026-04-30 12:07 -34.03411 150.98315 8702 ft 292 kts 196°
2026-04-30 12:07 -34.05365 150.97602 9217 ft 295 kts 196°
2026-04-30 12:08 -34.07342 150.96881 9725 ft 299 kts 196°
2026-04-30 12:08 -34.09341 150.96152 10250 ft 302 kts 196°
2026-04-30 12:08 -34.11357 150.95416 10739 ft 304 kts 196°
2026-04-30 12:08 -34.13391 150.94673 11205 ft 306 kts 196°
2026-04-30 12:09 -34.15434 150.93926 11656 ft 307 kts 196°
2026-04-30 12:09 -34.17484 150.93177 12104 ft 308 kts 197°
2026-04-30 12:09 -34.19531 150.92428 12607 ft 308 kts 197°
2026-04-30 12:09 -34.21592 150.91674 13120 ft 310 kts 197°
2026-04-30 12:10 -34.23658 150.90918 13635 ft 311 kts 197°
2026-04-30 12:10 -34.25731 150.90159 14161 ft 312 kts 197°
2026-04-30 12:10 -34.27816 150.89394 14638 ft 313 kts 197°
2026-04-30 12:10 -34.29199 150.88887 14950 ft 315 kts 197°
2026-04-30 12:11 -34.31304 150.88116 15426 ft 318 kts 197°
2026-04-30 12:11 -34.34150 150.87071 16080 ft 321 kts 197°
2026-04-30 12:11 -34.35574 150.86548 16411 ft 323 kts 197°
2026-04-30 12:11 -34.37732 150.85755 16913 ft 325 kts 197°
2026-04-30 12:12 -34.39898 150.84959 17414 ft 327 kts 197°
2026-04-30 12:12 -34.42082 150.84156 17933 ft 328 kts 197°
2026-04-30 12:12 -34.44271 150.83350 18449 ft 330 kts 197°
2026-04-30 12:12 -34.46474 150.82539 18949 ft 331 kts 197°
2026-04-30 12:13 -34.48685 150.81725 19407 ft 333 kts 197°
2026-04-30 12:13 -34.50914 150.80904 19881 ft 338 kts 197°
2026-04-30 12:13 -34.53180 150.80063 20373 ft 344 kts 199°
2026-04-30 12:13 -34.55348 150.78815 20832 ft 347 kts 214°
2026-04-30 12:14 -34.57174 150.76907 21332 ft 348 kts 230°
2026-04-30 12:14 -34.58664 150.74578 21852 ft 351 kts 234°
2026-04-30 12:14 -34.60111 150.72155 22365 ft 357 kts 235°
2026-04-30 12:14 -34.61564 150.69688 22891 ft 363 kts 234°
2026-04-30 12:15 -34.63043 150.67180 23416 ft 367 kts 234°
2026-04-30 12:15 -34.64544 150.64647 23958 ft 372 kts 234°
2026-04-30 12:15 -34.66067 150.62089 24423 ft 375 kts 234°
2026-04-30 12:15 -34.67589 150.59543 24878 ft 379 kts 234°
2026-04-30 12:16 -34.69113 150.56999 25315 ft 382 kts 233°
2026-04-30 12:16 -34.70708 150.54383 25541 ft 389 kts 233°
2026-04-30 12:16 -34.72316 150.51710 25798 ft 395 kts 234°
2026-04-30 12:16 -34.73938 150.48988 26047 ft 401 kts 234°
2026-04-30 12:17 -34.77249 150.43425 26560 ft 411 kts 234°
2026-04-30 12:17 -34.78937 150.40591 26800 ft 416 kts 234°
2026-04-30 12:17 -34.80645 150.37726 27062 ft 420 kts 234°
2026-04-30 12:18 -34.82372 150.34830 27309 ft 425 kts 234°
2026-04-30 12:18 -34.84112 150.31910 27567 ft 428 kts 234°
2026-04-30 12:18 -34.85870 150.28960 27821 ft 432 kts 234°
2026-04-30 12:18 -34.87639 150.25988 28107 ft 434 kts 234°
2026-04-30 12:19 -34.89386 150.23050 29002 ft 420 kts 233°
2026-04-30 12:19 -34.91062 150.20227 30119 ft 402 kts 233°
2026-04-30 12:19 -34.92683 150.17497 30843 ft 395 kts 233°
2026-04-30 12:19 -34.94291 150.14786 31159 ft 395 kts 233°
2026-04-30 12:20 -34.95884 150.12100 31743 ft 386 kts 233°
2026-04-30 12:20 -34.97441 150.09470 32333 ft 378 kts 234°
2026-04-30 12:20 -34.98961 150.06903 32937 ft 369 kts 234°
2026-04-30 12:20 -35.00441 150.04400 33554 ft 358 kts 233°
2026-04-30 12:21 -35.01892 150.01946 33892 ft 357 kts 233°
2026-04-30 12:21 -35.03359 149.99462 33900 ft 364 kts 233°
2026-04-30 12:21 -35.06359 149.94381 34041 ft 374 kts 233°
2026-04-30 12:22 -35.09446 149.89153 34168 ft 385 kts 233°
2026-04-30 12:22 -35.12609 149.83790 34423 ft 391 kts 234°
2026-04-30 12:23 -35.14196 149.81094 34676 ft 390 kts 234°
2026-04-30 12:23 -35.15772 149.78416 35039 ft 385 kts 234°
2026-04-30 12:23 -35.17324 149.75776 35400 ft 381 kts 234°
2026-04-30 12:23 -35.18860 149.73160 35697 ft 377 kts 234°
2026-04-30 12:24 -35.20385 149.70562 35937 ft 376 kts 234°
2026-04-30 12:24 -35.21891 149.67995 36105 ft 376 kts 234°
2026-04-30 12:24 -35.23414 149.65396 36286 ft 376 kts 234°
2026-04-30 12:24 -35.24933 149.62803 36501 ft 374 kts 234°
2026-04-30 12:25 -35.26447 149.60216 36664 ft 374 kts 234°
2026-04-30 12:25 -35.27970 149.57611 36695 ft 378 kts 235°
2026-04-30 12:25 -35.31061 149.52319 36755 ft 386 kts 235°
2026-04-30 12:26 -35.34199 149.46938 36942 ft 389 kts 235°
2026-04-30 12:26 -35.35765 149.44251 37236 ft 385 kts 235°
2026-04-30 12:26 -35.37305 149.41606 37637 ft 378 kts 235°
2026-04-30 12:27 -35.38830 149.38985 37741 ft 380 kts 235°
2026-04-30 12:27 -35.40375 149.36327 37616 ft 387 kts 235°
2026-04-30 12:27 -35.43521 149.30907 37709 ft 391 kts 236°
2026-04-30 12:28 -35.45094 149.28195 37966 ft 388 kts 236°
2026-04-30 12:28 -35.46649 149.25513 38220 ft 385 kts 236°
2026-04-30 12:28 -35.48194 149.22845 38458 ft 382 kts 236°
2026-04-30 12:28 -35.49736 149.20180 38430 ft 385 kts 236°
2026-04-30 12:29 -35.52849 149.14793 38467 ft 388 kts 236°
2026-04-30 12:29 -35.55985 149.09357 38491 ft 392 kts 236°
2026-04-30 12:30 -35.59154 149.03856 38497 ft 396 kts 236°
2026-04-30 12:30 -35.62331 148.98333 38468 ft 389 kts 236°
2026-04-30 12:31 -35.63863 148.95670 38471 ft 375 kts 236°
2026-04-30 12:31 -35.65356 148.93072 38481 ft 369 kts 236°
2026-04-30 12:31 -35.68329 148.87885 38430 ft 374 kts 236°